Regional Weather Roundup
Issued by NWS

Home | Current Version | Previous Version | Graphics & Text | Print | Product List | Glossary On
Versions: 1 2 3 4 5 6 7 8 9 10 11 12 13 14 15 16 17 18 19 20 21 22 23 24 25 26 27 28 29 30 31 32 33 34 35 36 37 38 39 40 41 42 43 44 45 46 47 48 49 50
000
ASUS45 KCYS 300410
RWRWY

WYOMING REGIONAL WEATHER ROUNDUP
NATIONAL WEATHER SERVICE CHEYENNE WY
1000 PM MDT MON SEP 29 2014

NOTE:  "FAIR" INDICATES FEW OR NO CLOUDS BELOW 12,000 FEET
WITH NO SIGNIFICANT WEATHER AND/OR OBSTRUCTIONS TO VISIBILITY.

WYZ001-300500-
YELLOWSTONE NATIONAL PARK

CITY           SKY/WX    TMP DP  RH WIND       PRES   REMARKS
LK YELLOWSTONE   N/A     39  34  82 W7        30.01F WCI  34
W YELLOWSTONE  NOT AVBL

$$
WYZ002>013-054>058-071-098>099-300500-
NORTHERN WYOMING

CITY           SKY/WX    TMP DP  RH WIND       PRES   REMARKS
JACKSON        CLOUDY    45  41  87 S6        29.99S
CODY           PTCLDY    54  37  54 W7G23     29.84F
GREYBULL       MOCLDY    54  48  80 N3        29.80S
WORLAND        MOCLDY    56  47  71 N5        29.81R
SHERIDAN       MOCLDY    53  50  89 NW6       29.81S
BUFFALO        CLOUDY    52  47  83 NW8       29.85R
GILLETTE       CLOUDY    51  48  89 E5        29.83F
HULETT         MOCLDY    50  48  93 CALM      29.84  FOG
NEWCASTLE      CLOUDY    52  52 100 CALM      29.85

$$
WYZ014>020-022>026-101>103-300500-
CENTRAL WYOMING

CITY           SKY/WX    TMP DP  RH WIND       PRES   REMARKS
BIG PINEY      CLOUDY    44  38  79 CALM      30.01F
PINEDALE       CLOUDY    41  37  87 W7        30.00F
DUBOIS         MOCLDY    41  34  75 NW9       29.95F
LANDER         MOCLDY    49  36  61 W5        29.87S
RIVERTON       MOCLDY    51  37  58 NW18      29.87F
CASPER         CLOUDY    52  46  80 SE3       29.86R
DOUGLAS        CLOUDY    53  46  77 SE9       29.85F

$$
WYZ021-027>030-104>119-300500-
SOUTHERN WYOMING

CITY           SKY/WX    TMP DP  RH WIND       PRES   REMARKS
EVANSTON       MOCLDY    42  38  85 SW10      30.06R
KEMMERER       CLOUDY    41  37  87 W5        30.05R
FORT BRIDGER     N/A     44  41  89 W9G17     30.07R
ROCK SPRINGS   CLOUDY    47  39  74 W14       30.00R
DIXON          CLOUDY    49  41  74 SW9G16    30.02R
RAWLINS        CLOUDY    47  38  71 SW13      29.96R
SARATOGA         N/A     45  39  81 SW6       29.97R
LARAMIE        LGT RAIN  42  38  85 SW9       29.94R
CHEYENNE       RAIN      44  41  89 N22G32    29.86F FOG
TORRINGTON     RAIN      51  49  92 NW13      29.78F
PINE BLUFFS    RAIN      46  45  93 NW21G26   29.80F

$$



USA.gov is the U.S. government's official web portal to all federal, state and local government web resources and services.